GW0329 Weather Reports


time (UTC)temp
C
wind
direction
speed
KPH
gust
KPH
rain 1hr
cm
rain 24hr
cm
rain mn
cm
humidity
%
barometer
mb
20260508054629 5 168 0.0 3.2 0.00 0.00 0.00 76 1012.8
20260508054127 5 34 0.0 1.6 0.00 0.00 0.00 78 1012.6
20260508053624 5 331 0.0 1.6 0.00 0.00 0.00 75 1012.8
20260508053122 5 330 1.6 3.2 0.00 0.00 0.00 75 1012.9
20260508052619 5 346 1.6 3.2 0.00 0.00 0.00 77 1012.9
20260508052116 5 342 0.0 1.6 0.00 0.00 0.00 77 1013.0
20260508051612 5 11 0.0 1.6 0.00 0.00 0.00 75 1013.0
20260508051107 5 348 3.2 3.2 0.00 0.00 0.00 73 1012.9
20260508050604 4 20 1.6 1.6 0.00 0.00 0.00 77 1012.9
20260508045557 3 14 1.6 3.2 0.00 0.00 0.00 80 1013.0
20260508045055 3 7 1.6 3.2 0.00 0.00 0.00 81 1013.2
20260508044552 3 344 1.6 1.6 0.00 0.00 0.00 82 1012.9
20260508044048 3 6 0.0 1.6 0.00 0.00 0.00 81 1012.9
20260508043545 3 19 1.6 3.2 0.00 0.00 0.00 83 1012.8
20260508043043 3 21 3.2 3.2 0.00 0.00 0.00 83 1012.9
20260508042539 3 15 1.6 3.2 0.00 0.00 0.00 82 1013.0
20260508042037 3 2 1.6 3.2 0.00 0.00 0.00 80 1012.8
20260508041533 3 8 3.2 3.2 0.00 0.00 0.00 82 1012.8
20260508041029 3 11 3.2 3.2 0.00 0.00 0.00 81 1012.7
20260508040526 3 5 1.6 1.6 0.00 0.00 0.00 80 1012.6
20260508040024 3 36 1.6 1.6 0.00 0.00 0.00 80 1012.6
20260508035521 3 2 1.6 1.6 0.00 0.00 0.00 78 1012.7
20260508035018 3 5 1.6 3.2 0.00 0.00 0.00 78 1012.7
20260508034515 3 25 1.6 1.6 0.00 0.00 0.00 78 1012.7
20260508034012 4 51 0.0 0.0 0.00 0.00 0.00 77 1012.8
20260508033510 4 11 0.0 3.2 0.00 0.00 0.00 77 1012.7
20260508033007 4 9 1.6 3.2 0.00 0.00 0.00 77 1012.7
20260508032504 5 40 0.0 1.6 0.00 0.00 0.00 76 1012.7
20260508032001 5 44 0.0 0.0 0.00 0.00 0.00 75 1012.8
20260508031459 5 18 0.0 1.6 0.00 0.00 0.00 72 1012.8
20260508030953 5 358 1.6 1.6 0.00 0.00 0.00 69 1012.7
20260508030451 5 42 0.0 3.2 0.00 0.00 0.00 70 1012.8
20260508025948 5 10 3.2 3.2 0.00 0.00 0.00 69 1012.9
20260508025444 5 20 1.6 3.2 0.00 0.00 0.00 68 1012.8
20260508024942 5 10 3.2 3.2 0.00 0.00 0.00 71 1012.8
20260508024438 5 7 1.6 3.2 0.00 0.00 0.00 71 1012.7
20260508023935 5 36 0.0 1.6 0.00 0.00 0.00 67 1012.9
20260508023431 5 0 0.0 0.0 0.00 0.00 0.00 70 1012.8
20260508022929 6 0 0.0 0.0 0.00 0.00 0.00 69 1012.9
20260508022424 6 11 0.0 1.6 0.00 0.00 0.00 67 1012.6
20260508021921 6 21 0.0 1.6 0.00 0.00 0.00 64 1012.7
20260508021418 6 207 0.0 0.0 0.00 0.00 0.00 63 1012.6
20260508020913 7 224 0.0 1.6 0.00 0.00 0.00 64 1012.6
20260508020412 7 312 0.0 0.0 0.00 0.00 0.00 61 1012.7
20260508015908 7 39 1.6 1.6 0.00 0.00 0.00 58 1012.4
20260508015406 7 17 1.6 1.6 0.00 0.00 0.00 61 1012.7
20260508014902 7 74 0.0 0.0 0.00 0.00 0.00 58 1012.5
20260508014400 8 50 0.0 0.0 0.00 0.00 0.00 55 1012.4
20260508013855 8 23 1.6 1.6 0.00 0.00 0.00 54 1012.3
20260508013351 8 356 0.0 0.0 0.00 0.00 0.00 53 1012.3
20260508012849 8 345 0.0 3.2 0.00 0.00 0.00 51 1012.3
20260508012346 9 342 1.6 3.2 0.00 0.00 0.00 51 1012.1
20260508011844 10 356 1.6 4.8 0.00 0.00 0.00 50 1012.1
20260508011341 10 273 3.2 6.4 0.00 0.00 0.00 49 1012.2
20260508010838 10 286 6.4 6.4 0.00 0.00 0.00 48 1012.0
20260508010336 10 282 4.8 6.4 0.00 0.00 0.00 48 1011.9
20260508005833 10 304 6.4 8.0 0.00 0.00 0.00 48 1012.0
20260508005329 10 313 4.8 8.0 0.00 0.00 0.00 48 1011.9
20260508004825 10 288 3.2 6.4 0.00 0.00 0.00 48 1011.8
20260508004322 10 312 0.0 6.4 0.00 0.00 0.00 48 1011.5
20260508003818 11 298 1.6 8.0 0.00 0.00 0.00 46 1011.9
20260508003316 11 264 4.8 8.0 0.00 0.00 0.00 45 1011.8
20260508002813 11 286 4.8 12.9 0.00 0.00 0.00 44 1011.5
20260508002309 11 281 4.8 9.7 0.00 0.00 0.00 44 1011.5
20260508001805 11 274 8.0 17.7 0.00 0.00 0.00 43 1011.2
20260508001301 11 336 3.2 9.7 0.00 0.00 0.00 45 1011.3
20260508000757 12 292 3.2 11.3 0.00 0.00 0.00 43 1011.4
20260508000257 12 318 6.4 22.5 0.00 0.00 0.00 41 1011.2
20260507235751 12 289 12.9 27.4 0.00 0.00 0.00 40 1011.2
20260507235249 12 265 9.7 27.4 0.00 0.00 0.00 40 1010.9
20260507234745 12 275 4.8 24.1 0.00 0.00 0.00 40 1010.9
20260507234242 12 293 20.9 25.7 0.00 0.00 0.00 40 1010.9
20260507233738 13 299 12.9 32.2 0.00 0.00 0.00 39 1011.0
20260507233237 13 263 11.3 19.3 0.00 0.00 0.00 40 1011.0
20260507232734 13 300 6.4 22.5 0.00 0.00 0.00 40 1010.9
20260507232230 13 318 20.9 37.0 0.00 0.00 0.00 39 1010.7
20260507231727 13 331 20.9 37.0 0.00 0.00 0.00 39 1010.7
20260507231224 13 304 9.7 14.5 0.00 0.00 0.00 41 1010.7
20260507230720 13 349 6.4 27.4 0.00 0.00 0.00 40 1010.6
20260507230218 13 291 8.0 20.9 0.00 0.00 0.00 40 1010.6
20260507225717 13 265 11.3 30.6 0.00 0.00 0.00 40 1010.8
20260507225214 13 265 9.7 24.1 0.00 0.00 0.00 41 1010.6
20260507224710 13 285 19.3 19.3 0.00 0.00 0.00 40 1010.7
20260507224207 14 287 30.6 32.2 0.00 0.00 0.00 39 1010.5
20260507223703 14 278 17.7 22.5 0.00 0.00 0.00 39 1010.4
20260507223200 13 274 24.1 38.6 0.00 0.00 0.00 40 1010.3
20260507222657 13 282 6.4 12.9 0.00 0.00 0.00 41 1010.5
20260507222153 13 317 9.7 20.9 0.00 0.00 0.00 39 1010.3
20260507221649 13 279 11.3 22.5 0.00 0.00 0.00 39 1010.3
20260507221146 14 247 4.8 17.7 0.00 0.00 0.00 41 1010.3
20260507220643 14 346 16.1 17.7 0.00 0.00 0.00 40 1010.1
20260507220141 13 300 3.2 11.3 0.00 0.00 0.00 41 1010.0
20260507215637 13 304 3.2 9.7 0.00 0.00 0.00 41 1009.9
20260507215135 14 271 6.4 20.9 0.00 0.00 0.00 39 1010.1
20260507214631 15 22 11.3 22.5 0.00 0.00 0.00 37 1010.1
20260507214128 14 280 9.7 20.9 0.00 0.00 0.00 39 1009.7
20260507213624 15 241 12.9 24.1 0.00 0.00 0.00 36 1009.8
20260507213122 15 274 11.3 20.9 0.00 0.00 0.00 39 1009.7
20260507212617 14 287 6.4 12.9 0.00 0.00 0.00 40 1009.6
20260507212114 15 335 4.8 24.1 0.00 0.00 0.00 38 1009.4
20260507211611 14 282 8.0 24.1 0.00 0.00 0.00 38 1009.6
20260507211107 14 290 12.9 25.7 0.00 0.00 0.00 38 1009.5
20260507210605 14 273 14.5 20.9 0.00 0.00 0.00 37 1009.6
20260507205558 15 275 9.7 14.5 0.00 0.00 0.00 36 1009.5
20260507205054 14 266 4.8 14.5 0.00 0.00 0.00 40 1009.4
20260507204550 14 306 9.7 20.9 0.00 0.00 0.00 37 1009.5
20260507204048 15 280 12.9 24.1 0.00 0.00 0.00 36 1009.7
20260507203545 15 295 22.5 27.4 0.00 0.00 0.00 37 1009.5
20260507203043 15 277 19.3 24.1 0.00 0.00 0.00 36 1009.7
20260507202538 15 281 6.4 16.1 0.00 0.00 0.00 37 1009.7
20260507202035 15 296 12.9 20.9 0.00 0.00 0.00 36 1009.5
20260507201530 15 260 16.1 24.1 0.00 0.00 0.00 36 1009.6
20260507201027 15 267 4.8 9.7 0.00 0.00 0.00 37 1009.6
20260507200522 15 297 14.5 29.0 0.00 0.00 0.00 36 1009.6
20260507200019 14 243 8.0 17.7 0.00 0.00 0.00 39 1009.8
20260507195516 15 258 14.5 25.7 0.00 0.00 0.00 37 1009.7
20260507195014 15 276 8.0 17.7 0.00 0.00 0.00 36 1009.5
20260507194510 14 259 6.4 20.9 0.00 0.00 0.00 38 1009.9
20260507194006 15 311 11.3 24.1 0.00 0.00 0.00 37 1009.8
20260507193503 15 294 11.3 27.4 0.00 0.00 0.00 36 1009.8
20260507193000 15 275 16.1 17.7 0.00 0.00 0.00 37 1009.8
20260507192455 16 252 12.9 24.1 0.00 0.00 0.00 35 1010.0
20260507191953 16 245 11.3 30.6 0.00 0.00 0.00 35 1010.0
20260507191449 16 303 12.9 16.1 0.00 0.00 0.00 37 1010.0
20260507190946 15 278 16.1 17.7 0.00 0.00 0.00 36 1009.7
20260507190443 15 209 6.4 12.9 0.00 0.00 0.00 37 1009.8
20260507185942 16 282 16.1 22.5 0.00 0.00 0.00 36 1009.9
20260507185439 16 220 12.9 16.1 0.00 0.00 0.00 34 1009.7
20260507184935 16 282 11.3 19.3 0.00 0.00 0.00 36 1009.9
20260507184434 15 286 17.7 24.1 0.00 0.00 0.00 37 1009.8
20260507183931 15 238 9.7 16.1 0.00 0.00 0.00 36 1010.0
20260507183427 14 298 14.5 17.7 0.00 0.00 0.00 37 1009.9
20260507182925 15 2 6.4 12.9 0.00 0.00 0.00 39 1010.0
20260507182421 15 214 6.4 16.1 0.00 0.00 0.00 39 1010.2
20260507181917 14 311 6.4 17.7 0.00 0.00 0.00 37 1010.0
20260507181413 14 313 17.7 32.2 0.00 0.00 0.00 37 1010.3
20260507180910 14 223 3.2 14.5 0.00 0.00 0.00 41 1010.2
20260507180407 14 254 9.7 17.7 0.00 0.00 0.00 38 1010.2
20260507175903 15 246 9.7 19.3 0.00 0.00 0.00 38 1010.3
20260507175400 15 244 11.3 16.1 0.00 0.00 0.00 41 1010.4
20260507174857 15 204 6.4 17.7 0.00 0.00 0.00 38 1010.4
20260507174354 15 218 9.7 22.5 0.00 0.00 0.00 38 1010.4
20260507173852 15 237 12.9 17.7 0.00 0.00 0.00 43 1010.4
20260507173349 15 271 12.9 17.7 0.00 0.00 0.00 44 1010.5
20260507172845 15 235 11.3 16.1 0.00 0.00 0.00 39 1010.6
20260507172342 15 221 9.7 16.1 0.00 0.00 0.00 38 1010.5
20260507171838 15 242 8.0 14.5 0.00 0.00 0.00 40 1010.7
20260507171335 15 213 22.5 25.7 0.00 0.00 0.00 40 1010.8
20260507170832 14 236 4.8 24.1 0.00 0.00 0.00 45 1010.6
20260507170328 15 278 11.3 30.6 0.00 0.00 0.00 41 1010.7
20260507165824 15 215 9.7 19.3 0.00 0.00 0.00 42 1010.7
20260507165320 15 308 11.3 19.3 0.00 0.00 0.00 42 1010.7
20260507164816 15 245 12.9 19.3 0.00 0.00 0.00 42 1010.7
20260507164314 15 232 8.0 20.9 0.00 0.00 0.00 41 1010.7
20260507163811 14 212 3.2 12.9 0.00 0.00 0.00 47 1010.8
20260507163309 15 224 4.8 9.7 0.00 0.00 0.00 42 1010.8
20260507162804 14 232 6.4 19.3 0.00 0.00 0.00 44 1010.8
20260507162300 15 238 14.5 16.1 0.00 0.00 0.00 43 1011.0
20260507161758 15 274 16.1 22.5 0.00 0.00 0.00 42 1010.8
20260507161254 13 202 12.9 24.1 0.00 0.00 0.00 43 1010.9
20260507160750 14 272 6.4 24.1 0.00 0.00 0.00 43 1010.7
20260507160246 14 178 6.4 17.7 0.00 0.00 0.00 44 1010.9
20260507155742 15 250 4.8 14.5 0.00 0.00 0.00 44 1011.3
20260507155238 15 245 8.0 16.1 0.00 0.00 0.00 45 1011.1
20260507154735 14 196 4.8 16.1 0.00 0.00 0.00 43 1011.0
20260507154233 15 269 11.3 20.9 0.00 0.00 0.00 39 1011.1
20260507153729 14 193 3.2 6.4 0.00 0.00 0.00 47 1011.2
20260507153226 13 227 4.8 14.5 0.00 0.00 0.00 47 1011.3
20260507152722 13 248 6.4 9.7 0.00 0.00 0.00 48 1011.2
20260507152219 12 287 4.8 8.0 0.00 0.00 0.00 48 1011.2
20260507151715 13 300 3.2 16.1 0.00 0.00 0.00 45 1011.3
20260507151211 12 217 8.0 11.3 0.00 0.00 0.00 51 1011.4
20260507150708 12 275 6.4 11.3 0.00 0.00 0.00 48 1011.5
20260507150205 13 250 6.4 14.5 0.00 0.00 0.00 51 1011.5
20260507145701 13 237 8.0 8.0 0.00 0.00 0.00 49 1011.8
20260507145158 12 244 4.8 12.9 0.00 0.00 0.00 48 1011.8
20260507144654 12 221 4.8 9.7 0.00 0.00 0.00 56 1011.9
20260507144153 12 239 6.4 12.9 0.00 0.00 0.00 51 1012.0
20260507143649 12 230 11.3 14.5 0.00 0.00 0.00 54 1011.8
20260507143146 13 219 8.0 9.7 0.00 0.00 0.00 53 1011.9
20260507142642 13 228 17.7 17.7 0.00 0.00 0.00 51 1012.0
20260507142139 12 293 6.4 12.9 0.00 0.00 0.00 56 1011.9
20260507141635 12 220 20.9 22.5 0.00 0.00 0.00 55 1012.3
20260507141132 12 230 16.1 16.1 0.00 0.00 0.00 55 1012.2
20260507140628 12 277 9.7 14.5 0.00 0.00 0.00 58 1012.2
20260507140126 12 263 11.3 14.5 0.00 0.00 0.00 55 1012.3
20260507135623 12 267 4.8 11.3 0.00 0.00 0.00 54 1012.4
20260507135120 12 255 3.2 11.3 0.00 0.00 0.00 58 1012.5
20260507134616 12 128 3.2 12.9 0.00 0.00 0.00 57 1012.5
20260507134112 12 253 4.8 6.4 0.00 0.00 0.00 57 1012.5
20260507133608 12 261 6.4 9.7 0.00 0.00 0.00 60 1012.5
20260507133106 12 232 8.0 9.7 0.00 0.00 0.00 62 1012.5
20260507132603 11 197 1.6 4.8 0.00 0.00 0.00 66 1012.5
20260507132059 11 226 6.4 6.4 0.00 0.00 0.00 63 1012.6
20260507131556 11 211 3.2 3.2 0.00 0.00 0.00 65 1012.6
20260507131054 10 188 3.2 6.4 0.00 0.00 0.00 65 1012.5
20260507130550 10 218 4.8 6.4 0.00 0.00 0.00 65 1012.6
20260507130048 10 232 3.2 4.8 0.00 0.00 0.00 69 1012.8
20260507125547 10 213 3.2 4.8 0.00 0.00 0.00 70 1012.7
20260507125044 9 216 3.2 6.4 0.00 0.00 0.00 69 1012.8
20260507124540 9 209 0.0 4.8 0.00 0.00 0.00 70 1012.8
20260507124038 9 234 4.8 6.4 0.00 0.00 0.00 70 1012.8
20260507123536 8 252 4.8 9.7 0.00 0.00 0.00 72 1012.8
20260507123032 8 254 1.6 3.2 0.00 0.00 0.00 78 1012.9
20260507122527 8 216 3.2 4.8 0.00 0.00 0.00 78 1012.7
20260507122024 7 234 3.2 6.4 0.00 0.00 0.00 80 1012.7
20260507121519 7 228 0.0 4.8 0.00 0.00 0.00 82 1012.8
20260507121015 7 245 0.0 3.2 0.00 0.00 0.00 87 1012.6
20260507120512 7 246 1.6 3.2 0.00 0.00 0.00 92 1012.8
20260507120009 6 338 0.0 3.2 0.00 0.00 0.00 96 1012.7
20260507115505 6 341 0.0 3.2 0.00 0.00 0.00 98 1012.5
20260507115001 5 343 0.0 3.2 0.00 0.00 0.00 98 1012.7
20260507114457 5 334 1.6 3.2 0.00 0.00 0.00 99 1012.7
20260507113955 5 339 1.6 3.2 0.00 0.00 0.00 99 1012.9
20260507113452 5 327 0.0 1.6 0.00 0.00 0.00 99 1012.8
20260507112949 4 25 0.0 0.0 0.00 0.00 0.00 99 1012.6
20260507112446 3 331 0.0 0.0 0.00 0.00 0.00 99 1012.5
20260507111943 3 18 0.0 0.0 0.00 0.00 0.00 99 1012.6
20260507111440 2 24 0.0 1.6 0.00 0.00 0.00 99 1012.4
20260507110936 2 10 3.2 3.2 0.00 0.00 0.00 99 1012.4
20260507110433 2 2 1.6 3.2 0.00 0.00 0.00 99 1012.4
20260507105929 1 5 3.2 3.2 0.00 0.00 0.00 98 1012.4
20260507105426 1 0 1.6 3.2 0.00 0.00 0.00 98 1012.4
20260507104923 1 2 1.6 1.6 0.00 0.00 0.00 98 1012.3
20260507104420 1 11 1.6 1.6 0.00 0.00 0.00 98 1012.5
20260507103915 1 16 0.0 3.2 0.00 0.00 0.00 98 1012.3
20260507103413 1 14 3.2 3.2 0.00 0.00 0.00 98 1012.2
20260507102909 1 17 3.2 3.2 0.00 0.00 0.00 98 1012.3
20260507102406 1 11 3.2 3.2 0.00 0.00 0.00 98 1012.4
20260507101902 1 8 3.2 3.2 0.00 0.00 0.00 98 1012.2
20260507101402 1 13 3.2 3.2 0.00 0.00 0.00 98 1012.3
20260507100859 1 24 1.6 3.2 0.00 0.00 0.00 98 1012.2
20260507100357 1 32 0.0 0.0 0.00 0.00 0.00 98 1012.1
20260507095855 1 32 0.0 1.6 0.00 0.00 0.00 98 1011.8
20260507095351 1 20 0.0 1.6 0.00 0.00 0.00 98 1012.2
20260507094849 1 356 1.6 3.2 0.00 0.00 0.00 98 1011.9
20260507094345 1 0 0.0 3.2 0.00 0.00 0.00 98 1012.1
20260507093842 1 33 1.6 1.6 0.00 0.00 0.00 98 1012.0
20260507093340 1 23 1.6 3.2 0.00 0.00 0.00 98 1011.9
20260507092838 1 22 1.6 3.2 0.00 0.00 0.00 98 1012.0
20260507092334 1 0 1.6 3.2 0.00 0.00 0.00 97 1012.1
20260507091830 1 25 0.0 1.6 0.00 0.00 0.00 98 1012.2
20260507091327 1 43 1.6 3.2 0.00 0.00 0.00 97 1012.2
20260507090823 1 353 3.2 3.2 0.00 0.00 0.00 97 1012.4
20260507090319 1 8 3.2 3.2 0.00 0.00 0.00 97 1012.2
20260507085816 1 342 1.6 3.2 0.00 0.00 0.00 97 1012.1
20260507085313 1 338 0.0 0.0 0.00 0.00 0.00 97 1012.2
20260507084811 1 44 0.0 1.6 0.00 0.00 0.00 97 1012.0
20260507084307 1 27 0.0 0.0 0.00 0.00 0.00 97 1012.1
20260507083805 2 343 0.0 1.6 0.00 0.00 0.00 97 1012.2
20260507083301 2 32 0.0 1.6 0.00 0.00 0.00 97 1012.3
20260507082757 2 44 0.0 1.6 0.00 0.00 0.00 97 1012.2
20260507082253 2 10 1.6 3.2 0.00 0.00 0.00 97 1012.3
20260507081750 2 26 0.0 1.6 0.00 0.00 0.00 97 1012.3
20260507081245 2 27 0.0 0.0 0.00 0.00 0.00 96 1012.2
20260507080742 2 27 0.0 0.0 0.00 0.00 0.00 96 1012.2
20260507080239 2 347 0.0 0.0 0.00 0.00 0.00 96 1012.4
20260507075734 2 22 0.0 3.2 0.00 0.00 0.00 96 1012.3
20260507075231 2 28 3.2 3.2 0.00 0.00 0.00 96 1012.3
20260507074727 2 12 1.6 1.6 0.00 0.00 0.00 96 1012.3
20260507074225 2 351 1.6 1.6 0.00 0.00 0.00 95 1012.2
20260507073722 2 27 0.0 0.0 0.00 0.00 0.00 96 1012.4
20260507073218 2 27 0.0 1.6 0.00 0.00 0.00 96 1012.4
20260507072716 3 354 3.2 3.2 0.00 0.00 0.00 96 1012.2
20260507072213 3 24 0.0 3.2 0.00 0.00 0.00 95 1012.2
20260507071711 3 89 0.0 1.6 0.00 0.00 0.00 95 1012.5
20260507071207 3 51 0.0 1.6 0.00 0.00 0.00 95 1012.3
20260507070704 3 11 0.0 0.0 0.00 0.00 0.00 95 1012.3
20260507070201 3 44 0.0 1.6 0.00 0.00 0.00 94 1012.4
20260507065657 3 12 0.0 3.2 0.00 0.00 0.00 94 1012.5
20260507065154 3 341 3.2 3.2 0.00 0.00 0.00 93 1012.7
20260507064651 3 323 0.0 0.0 0.00 0.00 0.00 93 1012.6
20260507064150 3 21 0.0 0.0 0.00 0.00 0.00 93 1012.7
20260507063647 3 21 0.0 0.0 0.00 0.00 0.00 92 1012.5
20260507063144 3 23 0.0 1.6 0.00 0.00 0.00 92 1012.3
20260507062641 4 356 1.6 1.6 0.00 0.00 0.00 91 1012.6
20260507062138 4 25 0.0 0.0 0.00 0.00 0.00 90 1012.5
20260507061636 5 21 0.0 0.0 0.00 0.00 0.00 90 1012.4
20260507061134 5 21 0.0 0.0 0.00 0.00 0.00 89 1012.5
20260507060632 5 21 0.0 0.0 0.00 0.00 0.00 87 1012.6
20260507060128 5 10 0.0 1.6 0.00 0.00 0.00 86 1012.8
20260507055623 5 9 3.2 3.2 0.00 0.00 0.00 85 1012.7